www.pogodaiklimat.ru

Погода и климат >> Архив погоды >> Испания >> Овьедо


ПОГОДА в Овьедо

  • Прогноз погоды в Овьедо
  • Монитор погоды в Овьедо

АРХИВ ПОГОДЫ в Овьедо

Время (UTC), дата Ветер
(напр.,м/с)
 
Видим.   Явления Облачность Т
(С)
Тd
(С)
f
(%)
Тe
(С)
Тes
(С)
Комфортность P
(гПа)
Po
(гПа)
Тmin
(С)
Tmax
(С)
R
(мм)
R24
(мм)
S
(см)
07 9.09 СЗ 1 19 км н/о +14.4 +12.6 89 +15 +15 1018.7 978.9
08 9.09 З 2 19 км н/о +14.7 +12.9 89 +15 +15 1019.0 979.2
09 9.09 З 2 20 км 9/4 600 м
[Sc diur, vesp Ac As]
+16.0 +12.5 80 +16 +18 1018.7 979.1
10 9.09 СЗ 1 20 км н/о +17.3 +12.6 74 +18 +18 1018.1 978.7
11 9.09 СЗ 3 20 км н/о +18.6 +11.2 62 +19 +19 1017.6 978.3
12 9.09 СЗ 3 20 км 10/4 600 м
[Cu Sc Cs]
+19.2 +11.2 60 +20 +26 1017.5 978.3
13 9.09 С 5 20 км н/о +17.6 +12.3 71 +17 +17 1018.1 978.7
14 9.09 СЗ 3 20 км н/о +18.3 +12.7 70 +19 +19 1017.4 978.1
15 9.09 С 2 18 км 6/3 600 м
[Cu Sc Ac lent Cs]
+19.4 +12.4 64 +21 +26 комфорт 1016.7 977.6
16 9.09 З 2 19 км н/о +20.0 +12.2 61 +22 +22 комфорт 1016.1 977.1
17 9.09 СЗ 3 20 км н/о +19.5 +11.3 59 +21 +21 комфорт 1016.1 977.0
18 9.09 СЗ 4 18 км 8/8 600 м
[Cu Sc]
+17.7 +11.7 68 +18 +18 1017.1 977.7 +20.1
19 9.09 СЗ 6 10 км н/о +15.8 +12.4 80 +14 +14 1017.9 978.3
20 9.09 СЗ 4 10 км слаб. дождь н/о +13.2 +12.4 95 +12 +12 1019.6 979.6 0.6
21 9.09 З 3 17 км в посл. час морось {дождь} н/о +13.0 +12.5 97 +12 +12 1020.8 980.7 0.6
22 9.09 З 3 19 км в посл. час морось н/о +13.0 +11.4 90 +12 +12 1020.8 980.7 0.0
23 9.09 З 3 15 км слаб. дождь н/о +13.0 +11.4 90 +12 +12 1020.7 980.6 0.0
00 10.09 З 2 14 км в посл. час дождь н/о +12.0 +11.4 96 +11 +11 1020.4 980.1 0.8
01 10.09 З 4 8000 м слаб. дождь н/о +11.3 +10.7 96 +9 +9 1020.7 980.3 3
02 10.09 СЗ 1 14 км слаб. дождь н/о +11.4 +10.8 96 +11 +11 1020.2 979.9 0.2
03 10.09 З 4 13 км слаб. морось {дождь} н/о +11.0 +10.8 99 +8 +8 1020.6 980.2 5
04 10.09 З 3 10 км в посл. час морось н/о +10.9 +10.4 97 +9 +9 1020.4 980.0 0.0
05 10.09 СЗ 3 19 км в посл. час дождь н/о +10.9 +10.4 97 +9 +9 1020.6 980.2 1
06 10.09 СЗ 2 9000 м слаб. дождь н/о +11.2 +10.7 97 +10 +10 1021.1 980.7 +10.8 3
07 10.09 СЗ 3 17 км в посл. час дождь н/о +11.1 +10.8 98 +9 +9 1021.6 981.2 0.2
08 10.09 СЗ 3 18 км н/о +12.0 +11.4 96 +10 +10 1021.8 981.5
09 10.09 СЗ 4 7000 м в посл. час дождь 10/10 600 м
[Cu Sc]
+12.8 +11.7 93 +11 +11 1022.2 982.0 0.6
10 10.09 СЗ 3 н/о дождь н/о +12.4 +12.2 99 +11 +11 1023.2 982.9 3
11 10.09 СЗ 3 7000 м дождь н/о +13.2 +12.6 96 +12 +12 1023.7 983.5 2
12 10.09 СЗ 5 5000 м в посл. час дождь 10/10 600 м
[Cu Sc]
+14.1 +11.8 86 +12 +12 1023.9 983.8 5
13 10.09 СЗ 3 13 км в посл. час дождь н/о +13.3 +12.7 96 +12 +12 1024.2 984.0 2
14 10.09 С 6 12 км слаб. морось н/о +14.7 +11.7 82 +13 +13 1023.9 983.9 0.0
15 10.09 С 4 10 км в посл. час дождь 10/10 600 м
[Cu Sc]
+14.4 +12.1 86 +13 +13 1024.2 984.1 3
16 10.09 С 2 14 км в посл. час морось н/о +14.5 +12.2 86 +14 +14 1024.6 984.5 0.2
17 10.09 С 3 2900 м дождь н/о +13.5 +12.7 95 +12 +12 1025.1 984.9 3
18 10.09 С 4 7000 м в посл. час дождь 9/9 300 м
[Cu Sc]
+13.4 +12.6 95 +12 +12 1025.4 985.2 +15.1 5
19 10.09 СЗ 2 7000 м слаб. дождь н/о +13.3 +13.0 98 +13 +13 1026.1 985.8 0.0
20 10.09 З 2 13 км в посл. час морось н/о +13.3 +13.0 98 +12 +12 1026.4 986.1 0.2
21 10.09 З 2 1000 м в посл. час морось {дождь} н/о +13.1 +12.9 99 +12 +12 1026.6 986.3 0.2
22 10.09 З 2 6000 м в посл. час дождь н/о +12.9 +12.9 100 +12 +12 1026.9 986.5 0.2
23 10.09 СЗ 2 6000 м н/о +13.2 +13.0 99 +13 +13 1026.8 986.5
00 11.09 З 2 11 км в посл. час морось {дождь} н/о +13.5 +13.2 98 +13 +13 1027.0 986.7 0.4
01 11.09 З 2 7000 м слаб. морось н/о +13.5 +13.3 99 +13 +13 1027.1 986.8 0.0
02 11.09 СЗ 2 10 км в посл. час дождь н/о +13.4 +13.4 100 +13 +13 1027.1 986.8 0.4
03 11.09 СЗ 2 3200 м н/о +13.4 +13.2 99 +13 +13 1027.1 986.8 0.4
04 11.09 СЗ 2 1700 м н/о +13.3 +13.3 100 +12 +12 1027.3 987.0
05 11.09 СЗ 1 7000 м н/о +13.4 +13.4 100 +13 +13 1027.5 987.2
06 11.09 СЗ 2 5000 м в посл. час морось {дождь} 10/8 600 м
[Sc As op]
+13.6 +13.6 100 +13 +13 1028.1 987.8 +12.8 0.0
07 11.09 З 2 7000 м слаб. морось н/о +13.5 +13.5 100 +13 +13 1028.9 988.5 0.2
08 11.09 ЮЗ 1 12 км в посл. час морось н/о +14.7 +14.2 97 +16 +16 1029.0 988.8 0.0
09 11.09 ЮЗ 1 10 км {дождь} 10/9 300 м
[Cu Sc Ac As]
+16.0 +14.5 91 +17 +18 1029.3 989.3 0.2
10 11.09 Ю 1 14 км слаб. морось н/о +15.7 +14.7 94 +16 +16 1029.7 989.6 0.0
11 11.09 В 2 19 км в посл. час морось н/о +17.2 +14.3 83 +18 +18 1029.5 989.6 0.0
12 11.09 СВ 3 20 км {дождь} 9/8 600 м
[Cu Sc Ac As]
+18.7 +14.4 76 +20 +21 1029.0 989.4 0.0
13 11.09 В 2 20 км н/о +19.7 +14.3 71 +22 +22 комфорт 1028.5 989.0
14 11.09 СВ 3 20 км н/о +20.0 +14.1 69 +23 +23 комфорт 1028.0 988.6
15 11.09 СВ 4 20 км 5/1 600 м
[Cu med, cong Ci fib]
+19.2 +13.6 70 +21 +25 комфорт 1028.2 988.6
16 11.09 СВ 4 20 км н/о +18.7 +13.3 71 +19 +19 1028.3 988.7
17 11.09 СВ 4 20 км н/о +18.2 +13.3 73 +18 +18 1028.6 988.9
18 11.09 СВ 3 20 км 4/1 600 м
[Cu med, cong Ac lent Ci fib]
+16.9 +12.8 77 +17 +17 1029.0 989.1 +20.0
19 11.09 СВ 3 20 км н/о +16.1 +12.6 80 +16 +16 1029.7 989.7
20 11.09 В 2 20 км н/о +15.4 +12.7 84 +16 +16 1030.3 990.1
21 11.09 В 2 20 км н/о +15.2 +12.7 85 +15 +15 1030.6 990.4
22 11.09 В 3 20 км н/о +14.4 +12.6 89 +14 +14 1030.3 990.0
23 11.09 В 2 20 км н/о +13.7 +12.4 92 +13 +13 1030.4 990.0
00 12.09 В 1 18 км н/о +13.2 +12.3 94 +13 +13 1030.6 990.1
01 12.09 Ю 1 7000 м н/о +12.7 +12.1 96 +13 +13 1030.3 989.8
02 12.09 Ю 2 7000 м н/о +12.4 +12.1 98 +12 +12 1030.2 989.6
03 12.09 Ю 2 200 м н/о +11.7 +11.5 99 +11 +11 1030.3 989.6
04 12.09 Ю 2 100 м н/о +11.1 +10.9 99 +10 +10 1030.2 989.4
05 12.09 Ю 2 200 м н/о +11.2 +11.2 100 +10 +10 1030.2 989.4
06 12.09 Ю 1 200 м туман 5/5 300 м
[St]
+11.2 +11.2 100 +12 +12 1030.4 989.6 +11.1
07 12.09 Ю 1 500 м н/о +11.2 +11.2 100 +11 +11 1030.9 990.1
08 12.09 З 1 300 м н/о +12.3 +12.3 100 +12 +12 1031.0 990.4 0.2
09 12.09 ЮЗ 2 5000 м дымка {туман} 4/4 300 м
[St]
+13.7 +13.5 99 +13 +17 1031.3 990.9 0.2
10 12.09 З 1 19 км н/о +16.5 +14.0 85 +18 +18 1031.1 991.1
11 12.09 В 2 20 км н/о +19.9 +13.1 65 +22 +22 комфорт 1030.4 990.8
12 12.09 СВ 2 20 км {туман} 1/1 600 м
[Cu hum]
+20.9 +14.3 66 +24 +36 комфорт 1029.8 990.4
13 12.09 СВ 2 20 км н/о +22.4 +14.0 59 +26 +26 жарко 1029.3 990.1
14 12.09 С 2 20 км н/о +22.4 +15.0 63 +26 +26 жарко 1028.8 989.7
15 12.09 СВ 3 20 км 1/1 600 м
[Cu hum]
+22.0 +16.0 69 +26 +32 душно 1028.4 989.2
16 12.09 СВ 4 18 км н/о +21.4 +16.1 72 +25 +25 комфорт 1028.2 989.0
17 12.09 СВ 4 20 км н/о +20.6 +16.0 75 +24 +24 комфорт 1028.3 989.0
18 12.09 СВ 3 20 км 1/1 600 м
[Sc]
+19.7 +15.8 78 +22 +22 комфорт 1028.8 989.3 +22.8
19 12.09 В 2 20 км н/о +17.9 +15.2 84 +18 +18 1029.0 989.3
20 12.09 В 2 19 км н/о +17.1 +15.3 89 +18 +18 1029.7 989.8
21 12.09 В 2 16 км н/о +16.5 +15.4 93 +17 +17 1029.9 989.9
22 12.09 В 3 14 км н/о +16.2 +15.2 94 +16 +16 1030.0 990.0
23 12.09 В 1 14 км н/о +16.2 +15.2 94 +18 +18 1030.1 990.1
00 13.09 Ю 1 9000 м н/о +15.7 +15.2 97 +16 +16 1030.2 990.1
01 13.09 Ю 1 8000 м н/о +15.8 +15.2 96 +16 +16 1030.0 989.9
02 13.09 С 1 н/о н/о +15.5 +15.2 98 +16 +16 1029.8 989.7
03 13.09 В 1 10 км н/о +15.7 +15.1 96 +16 +16 1029.3 989.3
04 13.09 С 1 11 км н/о +15.8 +15.2 96 +17 +17 1029.4 989.4
05 13.09 В 1 15 км н/о +15.7 +14.9 95 +16 +16 1029.6 989.5
06 13.09 ЮВ 1 2000 м дымка 8/5 300 м
[St As op Cs]
+15.2 +14.9 98 +16 +16 1030.0 989.9 +15.2
07 13.09 З 1 3800 м н/о +15.0 +14.8 99 +16 +16 1030.0 989.8
08 13.09 В 2 15 км н/о +16.2 +14.9 92 +16 +16 1029.6 989.6
09 13.09 В 2 20 км 8/8 600 м
[Cu Sc]
+17.6 +15.4 87 +18 +19 1029.5 989.7
10 13.09 В 2 18 км н/о +19.4 +15.3 77 +22 +22 комфорт 1029.0 989.5
11 13.09 ЮВ 2 20 км н/о +22.1 +15.9 68 +26 +26 душно 1028.3 989.2
12 13.09 В 2 20 км 3/3 600 м
[Cu hum Ci fib]
+23.5 +15.8 62 +27 +36 душно 1027.7 988.8
13 13.09 В 3 20 км н/о +24.0 +16.3 62 +27 +27 жарко 1026.7 987.9
14 13.09 СВ 4 20 км н/о +22.2 +17.1 73 +27 +27 душно 1026.5 987.5
15 13.09 СВ 5 20 км 6/5 300 м
[Cu Sc Ci fib]
+21.8 +16.7 73 +26 +28 душно 1026.5 987.4
16 13.09 СВ 4 20 км н/о +21.8 +16.5 72 +26 +26 душно 1026.4 987.3
17 13.09 СВ 4 20 км н/о +20.7 +16.9 79 +24 +24 комфорт 1026.4 987.2
18 13.09 СВ 4 20 км 8/4 600 м
[Cu Sc Ac As Ci fib]
+20.0 +16.6 81 +23 +23 комфорт 1026.2 986.9 +24.2
19 13.09 В 3 20 км н/о +18.9 +16.1 84 +20 +20 1026.4 986.9
20 13.09 В 2 20 км н/о +18.2 +16.0 87 +19 +19 1026.9 987.3
21 13.09 В 2 17 км н/о +17.6 +15.9 90 +18 +18 1027.1 987.4
22 13.09 ЮВ 1 15 км н/о +17.2 +16.1 93 +18 +18 1027.2 987.5
23 13.09 СВ 1 12 км н/о +17.1 +16.1 94 +19 +19 1026.8 987.1
00 14.09 ЮВ 1 11 км н/о +17.0 +16.0 94 +18 +18 1026.8 987.0
01 14.09 ЮВ 1 9000 м н/о +17.1 +16.1 94 +18 +18 1026.4 986.7
02 14.09 Ю 1 6000 м н/о +16.9 +16.3 96 +18 +18 1025.9 986.2
03 14.09 СЗ 1 7000 м н/о +16.9 +16.1 95 +18 +18 1025.6 985.9
04 14.09 В 1 9000 м н/о +16.8 +16.0 95 +18 +18 1025.4 985.7
05 14.09 ЮЗ 1 6000 м н/о +16.8 +16.2 96 +18 +18 1025.0 985.3
06 14.09 СВ 1 8000 м дымка 10/4 300 м
[St As op]
+16.6 +15.6 94 +18 +18 1025.6 985.8 +16.6
07 14.09 ЮЗ 2 7000 м н/о +16.9 +15.9 94 +17 +17 1025.6 985.9
08 14.09 Ю 1 12 км н/о +16.8 +15.8 94 +18 +18 1026.1 986.3
09 14.09 З 2 12 км 9/6 600 м
[Frnb As trans]
+17.4 +15.4 88 +18 +19 1025.7 986.0
10 14.09 ЮВ 1 15 км н/о +18.8 +16.2 85 +21 +21 комфорт 1025.6 986.1
11 14.09 В 1 19 км н/о +21.7 +16.4 72 +26 +26 душно 1024.7 985.6
12 14.09 В 2 20 км 1/1 600 м
[Cu hum]
+23.2 +16.3 65 +28 +40 душно 1023.8 985.0
13 14.09 СВ 2 20 км н/о +25.0 +17.5 63 +29 +29 душно 1022.9 984.4
14 14.09 В 3 20 км н/о +24.7 +17.9 66 +29 +29 душно 1022.5 983.9
15 14.09 СВ 4 20 км ясно +23.7 +17.2 67 +28 +33 душно 1022.0 983.3
16 14.09 СВ 3 20 км н/о +23.3 +16.6 66 +28 +28 душно 1021.8 983.1
17 14.09 В 2 20 км н/о +22.3 +16.6 70 +27 +27 душно 1022.2 983.3
18 14.09 В 2 20 км 3/0
[Ci fib]
+21.2 +16.8 76 +25 +25 комфорт 1022.4 983.4 +25.2
19 14.09 В 2 12 км н/о +19.4 +17.2 87 +22 +22 комфорт 1023.1 983.8
20 14.09 В 1 9000 м н/о +18.5 +17.2 92 +20 +20 1023.7 984.3
21 14.09 ЮВ 1 3700 м н/о +18.0 +17.0 94 +19 +19 1023.8 984.3
22 14.09 СЗ 1 1500 м н/о +17.3 +17.0 98 +18 +18 1023.8 984.2
23 14.09 З 1 3000 м н/о +17.6 +17.1 97 +19 +19 1023.5 984.0
00 15.09 З 1 3000 м н/о +17.6 +17.1 97 +19 +19 1023.2 983.7
01 15.09 ЮВ 1 1000 м н/о +17.5 +17.2 98 +19 +19 1022.8 983.3
02 15.09 СЗ 1 200 м н/о +17.3 +17.1 99 +19 +19 1022.0 982.5
03 15.09 В 1 200 м н/о +17.2 +17.0 99 +19 +19 1022.2 982.7
04 15.09 СЗ 2 100 м в посл. час морось н/о +17.1 +16.9 99 +18 +18 1022.1 982.6 0.0
05 15.09 СЗ 2 100 м н/о +16.8 +16.8 100 +17 +17 1022.3 982.7
06 15.09 З 2 200 м туман ?/? +16.5 +16.5 100 +17 +17 1022.3 982.7 +16.5 0.0
07 15.09 З 1 100 м н/о +16.7 +16.7 100 +17 +17 1022.4 982.8
08 15.09 СЗ 2 200 м н/о +16.7 +16.7 100 +17 +17 1022.6 983.0
09 15.09 З 1 2000 м дымка {туман} 10/6 300 м
[St As trans]
+17.0 +17.0 100 +18 +19 1022.9 983.3
10 15.09 Ю 1 9000 м н/о +17.8 +17.0 95 +19 +19 1023.0 983.5
11 15.09 З 1 7000 м н/о +18.3 +17.1 93 +20 +20 1022.3 982.9
12 15.09 СЗ 2 8000 м дымка {туман} 10/6 600 м
[Frnb As op]
+18.8 +17.3 91 +21 +22 комфорт 1021.2 981.9
13 15.09 ЮВ 3 12 км н/о +21.3 +17.7 80 +25 +25 комфорт 1021.1 982.2
14 15.09 С 2 14 км н/о +22.4 +17.7 75 +27 +27 душно 1020.0 981.2
15 15.09 СВ 3 16 км 8/3 600 м
[St As trans Cs]
+22.9 +18.4 76 +29 +32 очень
душно
1019.4 980.7
16 15.09 В 2 18 км н/о +23.0 +18.3 75 +29 +29 очень
душно
1019.2 980.6
17 15.09 СВ 2 19 км н/о +22.4 +18.4 78 +28 +28 душно 1019.1 980.4
18 15.09 СВ 3 20 км 6/3 600 м
[St Ac As Cs]
+20.3 +18.1 87 +24 +24 комфорт 1019.6 980.6 +23.4
19 15.09 В 2 8000 м н/о +19.4 +17.7 90 +22 +22 комфорт 1020.2 981.0
20 15.09 СВ 1 7000 м н/о +18.8 +17.8 94 +22 +22 комфорт 1020.5 981.3
21 15.09 ЮЗ 1 н/о н/о +18.7 +17.7 94 +21 +21 комфорт 1021.0 981.7
22 15.09 В 1 4600 м н/о +18.8 +18.0 95 +21 +21 комфорт 1021.0 981.7
23 15.09 З 1 3400 м в посл. час морось н/о +18.6 +17.9 96 +21 +21 комфорт 1020.9 981.6 0.0
00 16.09 СЗ 1 3300 м дымка н/о +18.0 +17.7 98 +19 +19 1021.0 981.6 0.0
01 16.09 СЗ 2 2500 м н/о +17.9 +17.6 98 +19 +19 1020.8 981.4
02 16.09 З 1 2700 м н/о +17.6 +17.3 98 +19 +19 1020.5 981.1
03 16.09 З 1 2400 м н/о +17.4 +17.2 99 +19 +19 1020.1 980.7
04 16.09 СЗ 1 1800 м н/о +17.3 +17.3 100 +18 +18 1019.8 980.4
05 16.09 ЮВ 1 3000 м н/о +17.4 +17.2 99 +19 +19 1019.6 980.2

 

Местоположение метеостанции Овьедо (Испания): широта 43.35 долгота -5.87 высота над уровнем моря 339 м.

В архиве по умолчанию представлена погода в Овьедо за последнюю неделю. Архивные данные за месяц целиком и за предыдущие месяцы, начиная с января 2011 года, Вы можете получить, выбрав интересующий диапазон дат из раскрывающегося списка и нажав кнопку "Ввод!".


*Определитесь, кто Вы:
робот инопланетянин человек

Внимание! Время в таблицах - всемирное. Для получения местного времени необходимо прибавить поправку, которая равна 1 ч.

Смотрите также архив погоды в соседних городах и на ближайших метеорологических станциях:

Погода в Авилесе (Испания) (26 км)
Погода в Хихоне (Испания) (27 км)
Погода на Кабо Пеньяс (Испания) (35 км)
Погода в Вальгранде-Пахаресе (Испания) (42 км)
Погода в Пуэрто-де-Сан-Исидро (Испания) (51 км)
Погода на Кабо Бусто (Испания) (54 км)
Погода в Пуэрто-де-Лейтарьегосе (Испания) (59 км)
Погода в Леоне (Испания) (87 км)
Погода в Льянесе (Испания) (91 км)
Погода в Кастрополе (Испания) (95 км)

Пояснения к столбцам:

Ветер - указаны скорость ветра в м/с - средняя за 10 мин, порывы в срок и между сроками (в фигурных скобках) и направление, откуда дует ветер: С - северный, СВ - северо-восточный, В - восточный, ЮВ - юго-восточный, Ю - южный, ЮЗ - юго-западный, З - западный, СЗ - северо-западный.
Видимость - горизонтальная дальность видимости в метрах или километрах. При видимости от 1 до 10 км при отсутствии осадков обычно наблюдается дымка, при ухудшении видимости до 1 км и менее - туман. В сухую погоду видимость может ухудшаться дымом, пылью или мглою.
Явления - указаны атмосферные явления, наблюдавшиеся в срок или в последний час перед сроком; фигурными скобками обозначены явления, наблюдавшиеся между сроками (за 1-3 часа до срока); квадратными скобками обозначены град или гололедные отложения с указанием их диаметра в мм.
Облачность - указаны через наклонную черту общая и нижняя облачность в баллах и высота нижней границы облаков в метрах; квадратными скобками обозначены формы облаков: Ci - перистые, Cs - перисто-слоистые, Cc - перисто-кучевые, Ac - высококучевые, As - высокослоистые, Sc - слоисто-кучевые, Ns - слоисто-дождевые, Cu - кучевые, Cb - кучево-дождевые. Подробнее классификацию облаков см. в Атласе облаков (PDF).
T - Температура воздуха - температура, измеренная на высоте 2 м над землей.
Td - Температура точки росы - температура, при понижении до которой содержащийся в воздухе водяной пар достигнет насыщения.
f - Относительная влажность воздуха - влажноcть воздуха, измеренная на высоте 2 м над землей.
Te - Эффективная температура - температура, которую ощущает одетый по сезону человек в тени. Характеристика душности погоды. При расчете учитывается влияние влажности воздуха и скорости ветра на теплоощущения человека.
Tes - Эффективная температура на солнце - температура, которую ощущает человек, с поправкой на солнечный нагрев. Характеристика знойности погоды. Зависит от высоты солнца над горизонтом, облачности и скорости ветра. Ночью, в пасмурную погоду, а также при ветре 12 м/с и более поправка равна нулю.
P - Атмосферное давление - приведенное к уровню моря атмосферное давление.
Po - Атмосферное давление - измеренное на уровне метеостанции атмосферное давление.
Tmin - Минимальная температура - минимум температуры воздуха на высоте 2 м над землей.
Tmax - Максимальная температура - максимум температуры воздуха на высоте 2 м над землей.
R - Количество осадков - Количество выпавших осадков за период времени, мм. При наведении курсора мыши на число - период времени, за который выпало указанное количество осадков.
R24 - Количество осадков - Количество выпавших осадков за 24 часа, мм.
S - Снежный покров - Высота снежного покрова, см. При наведении курсора мыши на число - состояние снежного покрова и степень покрытия местности в баллах.